Location: Aldenham
(51.6667°N, 0.3500°W)
Time: 16:48:44
(UTC+00:00)

Cosmos 304 Rocket - Pass Details

Date: 18 November 2025
Orbit: 668 x 677 km, 74.0° (Epoch: 12 December)

Event Time Altitude Azimuth Distance (km) Brightness Sun altitude
Rises 18:41:32 0° 203° (SSW) 3,004 7.4 -23.5°
Reaches altitude 10° 18:43:49 10° 203° (SSW) 2,096 6.5 -23.9°
Maximum altitude 18:48:32 89° 118° (ESE) 680 3.6 -24.6°
Enters shadow 18:48:49 80° 27° (NNE) 690 3.6 -24.7°
